Location: ??
(34.9170°N, 135.5016°E)
Time: 07:43:00
(UTC+00:00)

Explorer 7 - Pass Details

Date: 06 March 2021
Orbit: 484 x 677 km, 50.3° (Epoch: 17 April)

Event Time Altitude Azimuth Distance (km) Brightness Sun altitude
Rises 11:58:50 0° 287° (WNW) 2,643 11.3 -37.2°
Enters shadow 12:01:04 - 269° (W) 2,005 10.4 -37.7°
Reaches altitude 10° 12:02:53 10° 246° (WSW) 1,705 - -38.0°
Maximum altitude 12:03:37 10° 235° (SW) 1,670 - -38.1°
Drops below altitude 10° 12:04:20 10° 224° (SW) 1,690 - -38.3°
Sets 12:08:16 0° 182° (S) 2,538 - -39.0°
